Date String (YYYY-MM-DD hh:mm:ss) UTC,Instrument flags,absolute air pressure of the measurement (hPa),sample flow rate (lpm),inlet stack bypass flow (lpm),air temperature of the measurement (°C),ambient temperature measured by the external sensor (°C),aerosol sample conditioner tube jacket temperature (°C),OPC LED temperature (°C),internal box temperature (°C),relative humidity of the measurement (%),span deviation,mass concentration of particles derived from Lorenz-Mie calculation of OPC scattering (μg/m³),mass concentration of particles derived from Lorenz-Mie calculation of OPC scattering (μg/m³),mass concentration of particles derived from Lorenz-Mie calculation of OPC scattering (μg/m³)
DateTimeUTC,F1_M11,P_M11,Q1_M11,Q2_M11,T1_M11,T2_M11,T3_M11,T4_M11,T5_M11,U1_M11,ZSPAN_M11,X0_M11,X2_M11,X1_M11
2023-12-20 11:00:00,SystemResetWarning,0827.4,5.00,000.00,023.2,022.4,000.0,031.6,024.5,14.1,0000.0,0007.83,0003.30,0002.72
2023-12-20 11:01:00,SystemResetWarning,0827.4,5.00,000.00,023.1,022.4,000.0,031.6,024.5,14.1,0000.0,0008.10,0003.42,0002.87
2023-12-20 11:02:00,SystemResetWarning,0827.4,5.00,000.00,023.2,022.4,000.0,031.6,024.5,14.1,0000.0,0008.46,0003.57,0003.02
2023-12-20 11:03:00,SystemResetWarning,0827.3,5.00,000.00,023.2,022.4,000.0,031.6,024.5,14.0,0000.0,0008.23,0003.71,0003.13
2023-12-20 11:04:00,SystemResetWarning,0827.3,5.00,000.00,023.2,022.4,000.0,031.6,024.5,13.9,0000.0,0008.54,0003.85,0003.20
2023-12-20 11:05:00,SystemResetWarning,0827.3,5.00,000.00,023.2,022.4,000.0,031.6,024.4,13.9,0000.0,0008.76,0003.96,0003.27
2023-12-20 11:06:00,SystemResetWarning,0827.3,5.00,000.00,023.1,022.4,000.0,031.6,024.4,14.0,0000.0,0009.23,0004.07,0003.34
2023-12-20 11:07:00,SystemResetWarning,0827.3,5.00,000.00,023.1,022.4,000.0,031.5,024.4,14.1,0000.0,0009.53,0004.17,0003.41
2023-12-20 11:08:00,SystemResetWarning,0827.4,5.00,000.00,023.1,022.4,000.0,031.5,024.3,14.2,0000.0,0009.07,0004.26,0003.48
2023-12-20 11:09:00,SystemResetWarning,0827.4,5.00,000.00,023.1,022.4,000.0,031.5,024.4,14.2,0000.0,0009.13,0004.29,0003.52
2023-12-20 11:10:00,SystemResetWarning,0827.4,5.00,000.00,023.1,022.4,000.0,031.5,024.4,14.2,0000.0,0008.78,0004.25,0003.54
2023-12-20 11:11:00,SystemResetWarning,0827.3,5.00,000.00,023.1,022.4,000.0,031.5,024.4,14.3,0000.0,0008.52,0004.21,0003.52
2023-12-20 11:12:00,SystemResetWarning,0827.4,5.00,000.00,023.1,022.4,000.0,031.5,024.5,14.4,0000.0,0008.42,0004.18,0003.49
2023-12-20 11:13:00,SystemResetWarning,0827.4,5.00,000.00,023.1,022.3,000.0,031.5,024.5,14.5,0000.0,0008.28,0004.09,0003.47
2023-12-20 11:14:00,SystemResetWarning,0827.4,5.00,000.00,023.1,022.3,000.0,031.5,024.5,14.4,0000.0,0008.13,0004.03,0003.44
2023-12-20 11:15:00,SystemResetWarning,0827.4,5.00,000.00,023.1,022.3,000.0,031.5,024.5,14.1,0000.0,0008.08,0003.97,0003.41
2023-12-20 11:16:00,SystemResetWarning,0827.4,5.00,000.00,023.2,022.3,000.0,031.5,024.6,14.2,0000.0,0008.06,0003.96,0003.40
2023-12-20 11:17:00,SystemResetWarning,0827.4,4.99,000.00,023.2,022.3,000.0,031.5,024.6,14.3,0000.0,0007.92,0003.97,0003.39
2023-12-20 11:18:00,SystemResetWarning,0827.4,5.00,000.00,023.2,022.3,000.0,031.5,024.6,14.1,0000.0,0007.82,0003.95,0003.36
2023-12-20 11:19:00,SystemResetWarning,0827.3,5.00,000.00,023.2,022.3,000.0,031.5,024.6,14.1,0000.0,0008.57,0003.88,0003.33
2023-12-20 11:20:00,SystemResetWarning,0827.4,5.01,000.00,023.2,022.3,000.0,031.5,024.6,14.1,0000.0,0008.71,0003.86,0003.29
2023-12-20 11:21:00,SystemResetWarning,0827.4,5.00,000.00,023.2,022.3,000.0,031.5,024.6,14.0,0000.0,0009.20,0003.83,0003.26
2023-12-20 11:22:00,SystemResetWarning,0827.4,5.01,000.00,023.2,022.3,000.0,031.5,024.6,14.0,0000.0,0009.25,0003.83,0003.25
2023-12-20 11:23:00,SystemResetWarning,0827.4,5.00,000.00,023.2,022.4,000.0,031.5,024.5,14.0,0000.0,0009.22,0003.81,0003.25
2023-12-20 11:24:00,SystemResetWarning,0827.4,5.00,000.00,023.2,022.4,000.0,031.5,024.4,14.0,0000.0,0009.06,0003.78,0003.23
2023-12-20 11:25:00,SystemResetWarning,0827.4,5.00,000.00,023.2,022.4,000.0,031.5,024.4,14.1,0000.0,0008.79,0003.77,0003.23
2023-12-20 11:26:00,SystemResetWarning,0827.4,4.99,000.00,023.1,022.4,000.0,031.5,024.3,14.1,0000.0,0008.63,0003.72,0003.21
2023-12-20 11:27:00,SystemResetWarning,0827.4,5.00,000.00,023.1,022.3,000.0,031.5,024.3,14.2,0000.0,0008.59,0003.65,0003.16
2023-12-20 11:28:00,SystemResetWarning,0827.4,5.00,000.00,023.1,022.3,000.0,031.5,024.3,14.2,0000.0,0008.36,0003.55,0003.11
2023-12-20 11:29:00,SystemResetWarning,0827.4,5.00,000.00,023.1,022.3,000.0,031.5,024.3,14.2,0000.0,0008.35,0003.49,0003.07
2023-12-20 11:30:00,SystemResetWarning,0827.4,5.00,000.00,023.1,022.3,000.0,031.5,024.3,14.3,0000.0,0007.56,0003.48,0003.02
2023-12-20 11:31:00,SystemResetWarning,0827.4,5.00,000.00,023.1,022.3,000.0,031.5,024.3,14.2,0000.0,0007.36,0003.44,0002.99
2023-12-20 11:32:00,SystemResetWarning,0827.4,5.01,000.00,023.0,022.3,000.0,031.5,024.3,14.3,0000.0,0006.27,0003.40,0002.94
2023-12-20 11:33:00,SystemResetWarning,0827.4,5.00,000.00,023.0,022.3,000.0,031.5,024.3,14.2,0000.0,0006.11,0003.34,0002.87
2023-12-20 11:34:00,SystemResetWarning,0827.4,5.00,000.00,023.0,022.3,000.0,031.4,024.2,14.2,0000.0,0005.96,0003.32,0002.79
2023-12-20 11:35:00,SystemResetWarning,0827.4,5.01,000.00,023.0,022.3,000.0,031.4,024.2,14.3,0000.0,0005.80,0003.30,0002.76
2023-12-20 11:36:00,SystemResetWarning,0827.4,5.00,000.00,023.0,022.3,000.0,031.4,024.1,14.3,0000.0,0006.05,0003.26,0002.69
2023-12-20 11:37:00,SystemResetWarning,0827.4,4.99,000.00,023.0,022.2,000.0,031.4,024.1,14.3,0000.0,0006.03,0003.20,0002.62
2023-12-20 11:38:00,SystemResetWarning,0827.7,4.99,000.00,023.0,022.2,000.0,031.4,024.2,14.4,0000.0,0005.77,0003.16,0002.59
2023-12-20 11:39:00,SystemResetWarning,0827.7,5.00,000.00,023.0,022.2,000.0,031.4,024.2,14.4,0000.0,0005.60,0003.14,0002.58
2023-12-20 11:40:00,SystemResetWarning,0827.7,5.02,000.00,023.0,022.2,000.0,031.4,024.3,14.3,0000.0,0005.46,0003.12,0002.55
2023-12-20 11:41:00,SystemResetWarning,0827.7,5.00,000.00,023.0,022.2,000.0,031.4,024.4,14.3,0000.0,0005.10,0003.08,0002.54
2023-12-20 11:42:00,SystemResetWarning,0827.6,4.99,000.00,023.0,022.3,000.0,031.4,024.4,14.3,0000.0,0005.08,0003.05,0002.51
2023-12-20 11:43:00,SystemResetWarning,0827.6,4.99,000.00,023.0,022.3,000.0,031.4,024.5,14.3,0000.0,0005.15,0003.03,0002.49
2023-12-20 11:44:00,SystemResetWarning,0827.5,5.00,000.00,023.1,022.3,000.0,031.4,024.5,14.3,0000.0,0005.29,0003.05,0002.49
2023-12-20 11:45:00,SystemResetWarning,0827.5,5.01,000.00,023.1,022.3,000.0,031.4,024.5,14.2,0000.0,0005.56,0003.11,0002.54
2023-12-20 11:46:00,SystemResetWarning,0827.4,5.01,000.00,023.1,022.3,000.0,031.4,024.5,14.2,0000.0,0005.77,0003.16,0002.58
2023-12-20 11:47:00,SystemResetWarning,0827.4,4.99,000.00,023.1,022.3,000.0,031.4,024.5,14.1,0000.0,0005.38,0003.14,0002.58
2023-12-20 11:48:00,SystemResetWarning,0827.4,4.99,000.00,023.1,022.3,000.0,031.4,024.5,14.1,0000.0,0005.11,0003.13,0002.55
2023-12-20 11:49:00,SystemResetWarning,0827.5,4.99,000.00,023.1,022.3,000.0,031.4,024.5,14.1,0000.0,0005.07,0003.11,0002.52
2023-12-20 11:50:00,SystemResetWarning,0827.9,5.00,000.00,023.1,022.3,000.0,031.4,024.6,14.1,0000.0,0005.05,0003.08,0002.46
2023-12-20 11:51:00,SystemResetWarning,0828.0,5.01,000.00,023.1,022.3,000.0,031.4,024.6,14.1,0000.0,0004.58,0002.96,0002.37
2023-12-20 11:52:00,SystemResetWarning,0827.8,5.00,000.00,023.2,022.3,000.0,031.4,024.6,14.1,0000.0,0004.44,0002.81,0002.26
2023-12-20 11:53:00,SystemResetWarning,0827.7,5.00,000.00,023.2,022.3,000.0,031.4,024.6,14.1,0000.0,0004.77,0002.60,0002.12
2023-12-20 11:54:00,SystemResetWarning,0827.9,5.00,000.00,023.2,022.3,000.0,031.4,024.6,14.1,0000.0,0005.08,0002.47,0002.00
2023-12-20 11:55:00,SystemResetWarning,0827.8,5.00,000.00,023.2,022.3,000.0,031.4,024.6,14.0,0000.0,0004.78,0002.31,0001.89
2023-12-20 11:56:00,SystemResetWarning,0827.4,5.01,000.00,023.2,022.3,000.0,031.4,024.6,14.0,0000.0,0005.29,0002.10,0001.73
2023-12-20 11:57:00,SystemResetWarning,0827.5,5.00,000.00,023.2,022.3,000.0,031.4,024.6,13.8,0000.0,0004.82,0001.82,0001.55
2023-12-20 11:58:00,SystemResetWarning,0827.5,5.00,000.00,023.2,022.3,000.0,031.4,024.7,13.6,0000.0,0004.57,0001.65,0001.42
2023-12-20 11:59:00,SystemResetWarning,0827.6,5.00,000.00,023.2,022.3,000.0,031.4,024.6,13.5,0000.0,0004.42,0001.54,0001.33
